[Iaude] MPEC C65: 2024 CY [a=1.18,e=0.12,i=3.0,H=25.4]

mpec at cfa.harvard.edu mpec at cfa.harvard.edu
Tue Feb 6 15:28:01 EST 2024


M.P.E.C. 2024-C65                              Issued 2024 February 6, 20:26 UT

     The Minor Planet Electronic Circulars contain information on unusual
         minor planets, routine data on comets and natural satellites,
         and occasional editorial announcements.  They are published
    on behalf of Division F of the International Astronomical Union by the
          Minor Planet Center, Smithsonian Astrophysical Observatory,
                          Cambridge, MA 02138, U.S.A.
			  
             Prepared using the Tamkin Foundation Computer Network

                              MPC at CFA.HARVARD.EDU
            URL https://www.minorplanetcenter.net/    ISSN 1523-6714

                                    2024 CY                                     


Observations:
     K24C00Y*1C2024 02 05.27036808 24 20.635-03 28 57.61         20.32GVEC065G96
     K24C00Y 1C2024 02 05.27600808 24 21.150-03 28 44.33         20.44GVEC065G96
     K24C00Y 1C2024 02 05.28730408 24 22.126-03 28 17.54         20.67GVEC065G96
     K24C00Y KC2024 02 05.36571808 24 29.308-03 25 11.68         19.95GVEC065I52
     K24C00Y KC2024 02 05.36746208 24 29.480-03 25 07.14         19.84GVEC065I52
     K24C00Y KC2024 02 05.37010208 24 29.750-03 25 01.34         19.94GVEC065I52
     K24C00Y KC2024 02 05.37185108 24 29.902-03 24 57.10         19.83GVEC065I52
     K24C00Y KB2024 02 05.82106 08 25 47.45 -03 07 27.7          20.0 VZEC065C95
     K24C00Y KB2024 02 05.85907 08 25 51.76 -03 05 57.0          19.5 VZEC065C95
     K24C00Y KC2024 02 05.99974 08 26 04.19 -03 00 19.1          19.7 GVEC065L54
     K24C00Y KC2024 02 06.01078 08 26 05.41 -02 59 52.3          19.6 GVEC065L54
     K24C00Y KC2024 02 06.02125 08 26 06.49 -02 59 29.7          19.7 GVEC065L54
     K24C00Y KC2024 02 06.26123908 26 45.23 -02 49 32.1          20.2 GVEC065H21
     K24C00Y KC2024 02 06.26410608 26 45.51 -02 49 25.1          20.0 GVEC065H21
     K24C00Y KC2024 02 06.26697208 26 45.80 -02 49 17.9          20.0 GVEC065H21
     K24C00Y KC2024 02 06.26983908 26 46.09 -02 49 10.9          19.7 GVEC065H21
     K24C00Y KC2024 02 06.27270508 26 46.38 -02 49 03.8          20.1 GVEC065H21
     K24C00Y KB2024 02 06.81680 08 28 15.98 -02 26 48.4                XEC065M45
     K24C00Y KB2024 02 06.83398 08 28 17.86 -02 26 05.8          19.9 GXEC065M45

Observer details:
C95 SATINO Remote Observatory, Haute Provence.  Observer D. Husar.  0.30-m
    f/5.8 reflector + CMO.
G96 Mt. Lemmon Survey.  Observers V. F. Carvajal, D. Rankin.  Measurers T.
    Beuden, V. F. Carvajal, D. Fay, J. B. Fazekas, D. C. Fuls, A. R. Gibbs, A.
    D. Grauer, H. Groeller, J. K. Hogan, R. A. Kowalski, S. M. Larson, G. J.
    Leonard, D. Rankin, R. L. Seaman, F. C. Shelly, K. W. Wierzchos.  1.5-m
    reflector + 10K CCD.
H21 Astronomical Research Observatory, Westfield.  Observer R. Holmes.
    Measurers T. Linder, R. Holmes, L. Horn.  0.76-m f/3.0 astrograph + CCD.
I52 Steward Observatory, Mt. Lemmon Station.  Observer H. Groeller.  Measurers
    E. C. Beshore, D. Fay, J. B. Fazekas, D. C. Fuls, A. R. Gibbs, A. D.
    Grauer, H. Groeller, J. K. Hogan, R. A. Kowalski, S. M. Larson, G. J.
    Leonard, D. Rankin, R. L. Seaman, F. C. Shelly, K. W. Wierzchos.  1.0-m
    prime focus + CCD.
L54 Berthelot Observatory, Hunedoara.  Observers A. Sonka, A. Nedelcu.
    Measurer A. Sonka.  0.50-m f/8 reflector + CCD.
M45 Starhopper Observatory, Sfantu Gheorghe.  Observer F. Ursache.  0.41-m
    f/7.5 reflector + CMO.

Orbital elements:
2024 CY                                                  Earth MOID = 0.0493 AU
Epoch 2023 Sept. 13.0 TT = JDT 2460200.5                MPC                     
M 246.71590              (2000.0)            P               Q                  
n   0.77295046     Peri.  338.86826     -0.72609750     -0.68731304             
a   1.1758943      Node   157.67681     +0.63801340     -0.68408423             
e   0.1191163      Incl.    2.95418     +0.25636169     -0.24419164             
P   1.28           H   25.48          G   0.15           U   7                  
Residuals in seconds of arc
240205 G96  0.1+  0.1-    240205 C95  0.2+  0.4+    240206 H21  0.1-  0.1+
240205 G96  0.3+  0.1-    240205 C95  0.4+  0.6+    240206 H21  0.1-  0.1+
240205 G96  0.1-  0.1+    240205 L54 (2.1+  2.2+)   240206 H21  0.0   0.1+
240205 I52  0.1-  0.0     240206 L54 (2.2+  2.0+)   240206 M45  0.1+  0.2+
240205 I52  0.0   0.3+    240206 L54  0.9+  1.1-    240206 M45  0.1-  0.2+
240205 I52  0.2+  0.2-    240206 H21  0.1-  0.0
240205 I52  0.1-  0.1-    240206 H21  0.2-  0.0

Ephemeris:
2024 CY                  a,e,i = 1.18, 0.12, 3                   q = 1.0358
Date    TT    R. A. (2000) Decl.     Delta      r    Elong.  Phase     V
2024 01 07    07 37 54.5 -10 40 25   0.07997 1.0506   146.1    31.5    21.4
...
2024 01 22    07 56 04.6 -09 50 28   0.06355 1.0396   149.9    28.3    20.8
...
2024 01 30    08 10 18.2 -06 59 39   0.05726 1.0365   153.5    25.1    20.5
...
2024 02 05    08 23 40.2 -03 37 57   0.05382 1.0356   156.9    21.9    20.3
2024 02 06    08 26 08.0 -02 58 20   0.05337 1.0355   157.5    21.3    20.2
2024 02 07    08 28 40.0 -02 17 08   0.05295 1.0355   158.2    20.8    20.2
...
2024 02 13    08 45 21.4 +02 18 19   0.05136 1.0361   161.7    17.4    20.0
...
2024 02 21    09 11 17.7 +09 01 56   0.05177 1.0387   164.4    14.8    20.0
...
2024 03 07    10 03 51.4 +19 30 39   0.06061 1.0490   158.4    20.4    20.5

A. U. Tomatic                (C) Copyright 2024 MPC           M.P.E.C. 2024-C65





More information about the Iaude mailing list